McCall, ID

4:28 PM MDT on June 23, 2017 (GMT -0600)
McCall

Weather History for KMYL - December, 2011

Change the Weather History Date:

Wednesday, December 28, 2011

  Actual Average Record
Temperature  
Mean Temperature 38 °F 18 °F  
Max Temperature 43 °F 27 °F 50 °F (1933)
Min Temperature 32 °F 9 °F -11 °F (1942)
Degree Days  
Heating Degree Days 27 47  
Month to date heating degree days 1238 1294  
Since 1 July heating degree days 3394 3932  
Cooling Degree Days 0 0  
Month to date cooling degree days 0 0  
Year to date cooling degree days 56 25  
Moisture  
Dew Point 33 °F    
Average Humidity 90    
Maximum Humidity 100    
Minimum Humidity 79    
Precipitation  
Precipitation 0.63 in 0.07 in 2.06 in (1931)
Month to date precipitation 0.87 1.87  
Year to date precipitation 23.67 19.91  
Sea Level Pressure  
Sea Level Pressure 30.09 in    
Wind  
Wind Speed 5 mph (ESE)    
Max Wind Speed 15 mph    
Max Gust Speed 23 mph    
Visibility 5 miles    
Events Rain , Snow    
T = Trace of Precipitation, MM = Missing Value Source: NWS Daily Summary

Daily Weather History Graph

Daily Weather History Graph

Search for Another Location

Airport or City:

Trip Planner

Search our weather history database for the weather conditions in past years. The results will help you decide how hot, cold, wet, or windy it might be!

Date:

Astronomy

Dec. 28, 2011 Rise Set
Actual Time 8:21 AM MST 5:10 PM MST
Civil Twilight 7:48 AM MST 5:43 PM MST
Nautical Twilight 7:10 AM MST 6:21 PM MST
Astronomical Twilight 6:35 AM MST 6:56 PM MST
Moon 10:38 AM MST (12/28) 10:03 PM MST (12/28)
Length of Visible Light 9h 55m
Length of Day
8h 48m
Waxing Crescent, 18% of the Moon is Illuminated
Dec 28
Waxing Crescent
Dec 31
First Quarter
Jan 9
Full
Jan 16
Last Quarter
Jan 23
New

Hourly Weather History & Observations

Time (MST) Temp. Windchill Dew Point Humidity Pressure Visibility Wind Dir Wind Speed Gust Speed Precip Events Conditions
12:20 AM 32.0 °F 25.6 °F 30.2 °F 93% 30.13 in 0.8 mi SE 6.9 mph - 0.03 in Snow Light Snow
12:51 AM 32.0 °F 24.8 °F 30.9 °F 96% 30.18 in 1.0 mi SE 8.1 mph - 0.08 in Snow Light Snow
1:00 AM 32.0 °F 25.6 °F 30.2 °F 93% 30.11 in 1.2 mi ESE 6.9 mph - 0.01 in Snow Light Snow
1:25 AM 33.8 °F 27.0 °F 32.0 °F 93% 30.10 in 2.5 mi SE 8.1 mph - 0.03 in Snow Light Snow
1:31 AM 33.8 °F 27.0 °F 32.0 °F 93% 30.09 in 4.0 mi SE 8.1 mph - 0.03 in Snow Light Snow
1:51 AM 32.0 °F 25.6 °F 32.0 °F 100% 30.16 in 1.8 mi SSE 6.9 mph - 0.04 in Snow Light Snow
2:05 AM 33.8 °F 27.0 °F 32.0 °F 93% 30.09 in 2.0 mi SSE 8.1 mph - 0.01 in Snow Light Snow
2:24 AM 33.8 °F 28.6 °F 32.0 °F 93% 30.09 in 4.0 mi SE 5.8 mph - 0.02 in Snow Light Snow
2:35 AM 32.0 °F 25.6 °F 32.0 °F 100% 30.09 in 1.8 mi SSE 6.9 mph - 0.03 in Snow Light Snow
2:42 AM 32.0 °F 25.6 °F 32.0 °F 100% 30.09 in 1.2 mi SE 6.9 mph - 0.03 in Snow Light Snow
2:51 AM 32.0 °F 25.6 °F 32.0 °F 100% 30.16 in 1.0 mi SE 6.9 mph - 0.05 in Snow Light Snow
3:08 AM 32.0 °F 28.7 °F 32.0 °F 100% 30.10 in 1.5 mi SE 3.5 mph - 0.02 in Snow Light Snow
3:18 AM 32.0 °F - 32.0 °F 100% 30.11 in 2.0 mi Calm Calm - 0.03 in Snow Light Snow
3:28 AM 32.0 °F 28.7 °F 30.2 °F 93% 30.11 in 2.5 mi WSW 3.5 mph - 0.03 in Snow Light Snow
3:38 AM 32.0 °F - 32.0 °F 100% 30.12 in 1.5 mi Calm Calm - 0.04 in Snow Light Snow
3:48 AM 32.0 °F - 32.0 °F 100% 30.10 in 1.0 mi Calm Calm - 0.06 in Snow Light Snow
3:51 AM 32.0 °F - 32.0 °F 100% 30.17 in 0.8 mi Calm Calm - 0.07 in Snow Light Snow
3:58 AM 32.0 °F - 30.2 °F 93% 30.10 in 1.0 mi Calm Calm - 0.00 in Snow Light Snow
4:04 AM 32.0 °F - 30.2 °F 93% 30.09 in 2.0 mi Calm Calm - 0.01 in Snow Light Snow
4:13 AM 32.0 °F 28.7 °F 32.0 °F 100% 30.10 in 5.0 mi SE 3.5 mph - 0.01 in Snow Light Snow
4:20 AM 33.8 °F 30.8 °F 32.0 °F 93% 30.10 in 5.0 mi SE 3.5 mph - 0.01 in   Overcast
4:30 AM 33.8 °F - 32.0 °F 93% 30.10 in 4.0 mi Calm Calm - 0.02 in Snow Light Snow
4:51 AM 32.0 °F - 30.9 °F 96% 30.17 in 5.0 mi Calm Calm - 0.02 in   Overcast
5:02 AM 32.0 °F - 32.0 °F 100% 30.09 in 3.0 mi Calm Calm - 0.01 in Snow Light Snow
5:23 AM 33.8 °F - 32.0 °F 93% 30.09 in 3.0 mi Calm Calm - 0.03 in Snow Light Snow
5:51 AM 33.1 °F - 32.0 °F 96% 30.17 in 5.0 mi Calm Calm - 0.04 in Snow Light Snow
6:28 AM 33.8 °F - 32.0 °F 93% 30.10 in 9.0 mi Calm Calm - 0.01 in Rain Light Rain
6:51 AM 32.0 °F - 32.0 °F 100% 30.16 in 5.0 mi Calm Calm - 0.02 in Snow Light Snow
7:51 AM 33.1 °F 30.0 °F 32.0 °F 96% 30.16 in 4.0 mi North 3.5 mph - 0.03 in Snow Light Snow
7:58 AM 33.8 °F - 32.0 °F 93% 30.10 in 5.0 mi Calm Calm - 0.01 in Rain Light Rain
8:04 AM 33.8 °F - 32.0 °F 93% 30.10 in 6.0 mi Calm Calm - 0.01 in Snow Light Snow
8:12 AM 32.0 °F 28.7 °F 32.0 °F 100% 30.11 in 4.0 mi NNW 3.5 mph - 0.02 in Snow Light Snow
8:25 AM 32.0 °F 27.5 °F 32.0 °F 100% 30.12 in 3.0 mi North 4.6 mph - 0.03 in Snow Light Snow
8:27 AM 32.0 °F - 32.0 °F 100% 30.12 in 2.5 mi Calm Calm - 0.04 in Snow Light Snow
8:40 AM 33.8 °F 30.8 °F 32.0 °F 93% 30.11 in 4.0 mi NNE 3.5 mph - 0.05 in Snow Light Snow
8:51 AM 33.1 °F - 32.0 °F 96% 30.17 in 6.0 mi Calm Calm - 0.05 in Rain Light Rain
9:37 AM 33.8 °F - 32.0 °F 93% 30.12 in 9.0 mi Calm Calm - 0.00 in Snow Light Snow
9:51 AM 33.1 °F - 32.0 °F 96% 30.18 in 6.0 mi Calm Calm - 0.01 in Snow Light Snow
10:04 AM 33.8 °F - 32.0 °F 93% 30.11 in 8.0 mi Calm Calm - 0.00 in Rain Light Rain
10:51 AM 33.1 °F 28.7 °F 32.0 °F 96% 30.18 in 10.0 mi NW 4.6 mph - 0.01 in Rain Light Rain
11:37 AM 33.8 °F 29.6 °F 32.0 °F 93% 30.10 in 8.0 mi NNW 4.6 mph - 0.01 in Rain Light Rain
11:58 AM 33.8 °F 29.6 °F 32.0 °F 93% 30.10 in 7.0 mi NNW 4.6 mph - 0.00 in Rain Light Rain
12:18 PM 33.8 °F 30.8 °F 33.8 °F 100% 30.08 in 2.5 mi ENE 3.5 mph - 0.01 in Rain Light Rain
12:21 PM 33.8 °F 29.6 °F 33.8 °F 100% 30.08 in 3.0 mi NNE 4.6 mph - N/A Rain Light Rain
12:24 PM 33.8 °F - 32.0 °F 93% 30.08 in 3.0 mi Calm Calm - 0.01 in Rain Light Rain
12:42 PM 33.8 °F - 33.8 °F 100% 30.08 in 5.0 mi Calm Calm - 0.02 in Rain Light Rain
12:51 PM 34.0 °F 31.0 °F 33.1 °F 96% 30.14 in 4.0 mi North 3.5 mph - 0.03 in Rain Light Rain
12:58 PM 33.8 °F 30.8 °F 33.8 °F 100% 30.07 in 5.0 mi NNE 3.5 mph - 0.00 in Rain Light Rain
1:32 PM 35.6 °F - 33.8 °F 93% 30.05 in 4.0 mi Calm Calm - 0.02 in Rain Light Rain
1:51 PM 35.1 °F - 33.1 °F 92% 30.10 in 3.0 mi Calm Calm - 0.03 in Rain Light Rain
2:02 PM 35.6 °F - 33.8 °F 93% 30.05 in 4.0 mi Calm Calm - 0.01 in Rain Light Rain
2:27 PM 35.6 °F - 33.8 °F 93% 30.02 in 7.0 mi Calm Calm - 0.03 in Rain Light Rain
2:51 PM 35.1 °F 31.0 °F 34.0 °F 96% 30.06 in 4.0 mi Variable 4.6 mph - 0.04 in Rain Light Rain
3:51 PM 37.0 °F 32.4 °F 36.0 °F 96% 30.06 in 10.0 mi SE 5.8 mph - 0.03 in Rain Light Rain
4:51 PM 36.0 °F - 35.1 °F 97% 30.06 in 9.0 mi Calm Calm - 0.00 in   Overcast
5:51 PM 34.0 °F 31.0 °F 34.0 °F 100% 30.04 in 5.0 mi NNW 3.5 mph - 0.02 in Rain Light Rain
6:51 PM 36.0 °F - 35.1 °F 97% 30.02 in 10.0 mi Calm Calm - 0.02 in Rain Light Rain
7:51 PM 39.0 °F 32.3 °F 37.0 °F 93% 29.99 in 10.0 mi SSE 10.4 mph - 0.02 in Rain Light Rain
8:51 PM 39.9 °F 33.4 °F 36.0 °F 86% 29.97 in 10.0 mi SSE 10.4 mph - 0.02 in Rain Light Rain
9:17 PM 39.2 °F 32.0 °F 35.6 °F 87% 29.93 in 10.0 mi SSE 11.5 mph - 0.00 in Rain Light Rain
9:51 PM 41.0 °F 34.3 °F 35.1 °F 79% 29.96 in 10.0 mi SSE 11.5 mph - 0.00 in   Overcast
10:51 PM 39.9 °F 33.4 °F 34.0 °F 79% 29.96 in 10.0 mi SE 10.4 mph - 0.00 in   Overcast
11:51 PM 42.1 °F 35.2 °F 34.0 °F 73% 29.94 in 10.0 mi South 12.7 mph 19.6 mph 0.00 in   Overcast